This demonstration page uses our WeatherBlox Daily Observations layout. Learn more.

Left ArrowRight Arrow

Hourly Observations for August 4, 2018

Temp ( °F °C ) Dew Point ( °F °C ) Humidity (%) Winds ( mph kmh ) Pressure ( in mb ) Visibility ( mi km ) Precip ( " mm )
12:59 am 00:59 Cloudy 76 24.4 70 21.1 82 82 S 7 11 30.17 1022 10 16 0.00 0.00
1:59 am 01:59 Cloudy 76 24.4 71 21.7 85 85 SSW 8 13 30.16 1022 10 16 0.00 0.00
2:59 am 02:59 Partly Cloudy 76 24.4 71 21.7 85 85 SSW 9 15 30.15 1021 10 16 0.00 0.00
3:59 am 03:59 Cloudy 76 24.4 71 21.7 85 85 SSW 10 17 30.15 1021 10 16 0.00 0.00
4:59 am 04:59 Mostly Cloudy 75 23.9 72 22.2 90 90 SSW 9 15 30.15 1021 10 16 0.01 0.25
5:59 am 05:59 Mostly Cloudy 75 23.9 71 21.7 88 88 SW 9 15 30.16 1021 10 16 0.00 0.00
6:59 am 06:59 Mostly Cloudy 75 23.9 71 21.7 88 88 SSW 9 15 30.18 1022 10 16 0.00 0.00
7:59 am 07:59 Mostly Cloudy 76 24.4 72 22.2 88 88 SW 10 17 30.18 1022 10 16 0.00 0.00
8:17 am 08:17 Mostly Cloudy 76 24.4 72 22.2 88 88 SW 10 17 30.18 1022 10 16 0.00 0.00
8:59 am 08:59 Cloudy 77 25 73 22.8 88 88 SW 8 13 30.19 1023 10 16 0.00 0.00
9:43 am 09:43 Cloudy 78 25.6 72 22.2 82 82 WSW 6 9 30.21 1023 10 16 0.00 0.00
9:55 am 09:55 Cloudy 77 25 72 22 83 83 WSW 7 11 30.18 1022 10 16 0.00 0.00
9:59 am 09:59 Mostly Cloudy 78 25.6 73 22.8 85 85 WSW 6 9 30.19 1022 10 16 0.00 0.00
10:07 am 10:07 Mostly Cloudy 79 26.1 72 22.2 79 79 SW 7 11 30.18 1022 10 16 0.00 0.00
10:59 am 10:59 Mostly Cloudy 82 27.8 72 22.2 72 72 W 8 13 30.19 1023 10 16 0.00 0.00
11:59 am 11:59 Mostly Cloudy 83 28.3 72 22.2 70 70 W 7 11 30.19 1022 10 16 0.00 0.00
12:59 pm 12:59 Mostly Cloudy 85 29.4 73 22.8 68 68 W 7 11 30.18 1022 10 16 0.00 0.00
1:59 pm 13:59 Mostly Cloudy 86 30 72 22.2 63 63 NW 7 11 30.16 1022 10 16 0.00 0.00
2:59 pm 14:59 Mostly Cloudy 87 30.6 72 22.2 61 61 WNW 6 9 30.14 1021 10 16 0.00 0.00
3:59 pm 15:59 Mostly Cloudy 88 31.1 71 21.7 57 57 W 6 9 30.14 1021 10 16 0.00 0.00
4:59 pm 16:59 Mostly Cloudy 88 31.1 71 21.7 57 57 W 7 11 30.14 1021 10 16 0.00 0.00
5:59 pm 17:59 Mostly Cloudy 86 30 73 22.8 65 65 E 6 9 30.13 1020 10 16 0.00 0.00
6:59 pm 18:59 Mostly Cloudy 83 28.3 75 23.9 77 77 E 6 9 30.14 1021 10 16 0.00 0.00
7:59 pm 19:59 Mostly Cloudy 82 27.8 74 23.3 77 77 Calm 30.15 1021 10 16 0.00 0.00
8:59 pm 20:59 Mostly Cloudy 79 26.1 75 23.9 88 88 SSE 3 6 30.16 1021 10 16 0.01 0.25
9:59 pm 21:59 Mostly Cloudy 79 26.1 74 23.3 85 85 SE 3 6 30.16 1022 10 16 0.00 0.00
10:59 pm 22:59 Mostly Cloudy 78 25.6 74 23.3 87 87 S 5 7 30.18 1022 10 16 0.00 0.00
11:59 pm 23:59 Partly Cloudy 78 25.6 75 23.9 90 90 SW 7 11 30.18 1022 10 16 0.00 0.00

Powered by AerisWeather